Time,TemperatureF,DewpointF,PressureIn,WindDirection,WindDirectionDegrees,WindSpeedMPH,WindSpeedGustMPH,Humidity,HourlyPrecipIn,Conditions,Clouds,dailyrainin,SoftwareType,DateUTC
2013-06-10 00:05:00,57.7,58.0,29.93,East,92,2.0,7.0,99,0.00,,,0.00,weatherlink.com 1.10,2013-06-10 04:05:00,
2013-06-10 00:20:00,57.8,58.0,29.94,ENE,76,4.0,10.0,99,0.00,,,0.00,weatherlink.com 1.10,2013-06-10 04:20:00,
2013-06-10 00:35:00,57.8,58.0,29.93,ENE,61,5.0,6.0,99,0.00,,,0.00,weatherlink.com 1.10,2013-06-10 04:35:00,
2013-06-10 00:50:00,57.9,58.0,29.92,East,90,5.0,11.0,99,0.00,,,0.00,weatherlink.com 1.10,2013-06-10 04:50:00,
2013-06-10 01:05:00,57.8,58.0,29.92,ENE,71,3.0,9.0,99,0.00,,,0.00,weatherlink.com 1.10,2013-06-10 05:05:00,
2013-06-10 01:20:00,57.5,57.0,29.91,ENE,65,1.0,11.0,99,0.00,,,0.00,weatherlink.com 1.10,2013-06-10 05:20:00,
2013-06-10 01:50:00,58.0,58.0,29.89,ENE,63,4.0,9.0,99,0.00,,,0.00,weatherlink.com 1.10,2013-06-10 05:50:00,
2013-06-10 02:05:00,58.4,58.0,29.89,ENE,65,5.0,10.0,99,0.00,,,0.00,weatherlink.com 1.10,2013-06-10 06:05:00,
2013-06-10 02:20:00,58.4,58.0,29.89,ENE,62,2.0,11.0,99,0.00,,,0.00,weatherlink.com 1.10,2013-06-10 06:20:00,
2013-06-10 02:35:00,58.2,58.0,29.88,East,80,1.0,12.0,99,0.00,,,0.00,weatherlink.com 1.10,2013-06-10 06:35:00,
2013-06-10 02:50:00,58.3,58.0,29.88,East,92,3.0,10.0,99,0.00,,,0.00,weatherlink.com 1.10,2013-06-10 06:50:00,
2013-06-10 03:05:00,58.4,58.0,29.87,NE,53,1.0,10.0,99,0.00,,,0.00,weatherlink.com 1.10,2013-06-10 07:05:00,
2013-06-10 03:20:00,58.4,58.0,29.86,East,84,3.0,8.0,99,0.00,,,0.00,weatherlink.com 1.10,2013-06-10 07:20:00,
2013-06-10 03:35:00,57.9,58.0,29.85,ENE,77,8.0,16.0,99,0.00,,,0.00,weatherlink.com 1.10,2013-06-10 07:35:00,
2013-06-10 03:50:00,57.9,58.0,29.85,ENE,69,5.0,14.0,99,0.00,,,0.00,weatherlink.com 1.10,2013-06-10 07:50:00,
2013-06-10 04:05:00,57.8,58.0,29.85,ENE,75,3.0,12.0,99,0.00,,,0.00,weatherlink.com 1.10,2013-06-10 08:05:00,
2013-06-10 04:20:00,57.9,58.0,29.85,NE,46,6.0,10.0,99,0.00,,,0.00,weatherlink.com 1.10,2013-06-10 08:20:00,
2013-06-10 04:35:00,58.1,58.0,29.86,NE,38,1.0,5.0,99,0.00,,,0.00,weatherlink.com 1.10,2013-06-10 08:35:00,
2013-06-10 04:50:00,58.1,58.0,29.85,NE,56,3.0,14.0,99,0.00,,,0.00,weatherlink.com 1.10,2013-06-10 08:50:00,
2013-06-10 05:05:00,58.1,58.0,29.84,East,82,3.0,11.0,99,0.00,,,0.00,weatherlink.com 1.10,2013-06-10 09:05:00,
2013-06-10 05:20:00,57.9,58.0,29.84,ENE,65,2.0,9.0,99,0.00,,,0.00,weatherlink.com 1.10,2013-06-10 09:20:00,
2013-06-10 05:35:00,58.0,58.0,29.85,ENE,70,1.0,7.0,99,0.00,,,0.00,weatherlink.com 1.10,2013-06-10 09:35:00,
2013-06-10 05:50:00,58.0,58.0,29.84,NE,54,2.0,9.0,99,0.00,,,0.00,weatherlink.com 1.10,2013-06-10 09:50:00,
2013-06-10 06:05:00,57.8,58.0,29.84,NE,51,5.0,7.0,99,0.00,,,0.00,weatherlink.com 1.10,2013-06-10 10:05:00,
2013-06-10 06:20:00,57.3,57.0,29.84,ENE,67,3.0,18.0,99,0.00,,,0.00,weatherlink.com 1.10,2013-06-10 10:20:00,
2013-06-10 06:35:00,57.1,57.0,29.84,NNE,33,5.0,10.0,99,0.00,,,0.00,weatherlink.com 1.10,2013-06-10 10:35:00,
2013-06-10 06:50:00,57.1,57.0,29.84,ENE,74,5.0,10.0,99,0.00,,,0.00,weatherlink.com 1.10,2013-06-10 10:50:00,
2013-06-10 07:05:00,57.2,57.0,29.84,East,95,1.0,10.0,99,0.00,,,0.00,weatherlink.com 1.10,2013-06-10 11:05:00,
2013-06-10 07:20:00,57.2,57.0,29.84,ESE,104,2.0,12.0,99,0.00,,,0.00,weatherlink.com 1.10,2013-06-10 11:20:00,
2013-06-10 07:35:00,57.2,57.0,29.84,NE,40,8.0,11.0,99,0.00,,,0.00,weatherlink.com 1.10,2013-06-10 11:35:00,
2013-06-10 07:50:00,57.1,57.0,29.84,ENE,72,2.0,9.0,99,0.00,,,0.00,weatherlink.com 1.10,2013-06-10 11:50:00,
2013-06-10 08:05:00,57.3,57.0,29.84,ENE,74,3.0,9.0,99,0.00,,,0.00,weatherlink.com 1.10,2013-06-10 12:05:00,
2013-06-10 08:20:00,57.3,57.0,29.84,NNE,29,3.0,13.0,99,0.00,,,0.00,weatherlink.com 1.10,2013-06-10 12:20:00,
2013-06-10 08:35:00,57.1,57.0,29.86,East,100,8.0,8.0,99,0.00,,,0.00,weatherlink.com 1.10,2013-06-10 12:35:00,
2013-06-10 08:50:00,57.3,57.0,29.86,ENE,63,3.0,7.0,99,0.00,,,0.00,weatherlink.com 1.10,2013-06-10 12:50:00,
2013-06-10 09:05:00,57.5,57.0,29.86,NE,40,2.0,5.0,99,0.00,,,0.00,weatherlink.com 1.10,2013-06-10 13:05:00,
2013-06-10 09:21:00,57.8,58.0,29.86,ESE,111,4.0,7.0,99,0.00,,,0.00,weatherlink.com 1.10,2013-06-10 13:21:00,
2013-06-10 09:36:00,58.1,58.0,29.86,NE,53,1.0,5.0,99,0.00,,,0.00,weatherlink.com 1.10,2013-06-10 13:36:00,
2013-06-10 09:51:00,59.2,59.0,29.86,ENE,71,0.0,8.0,99,0.00,,,0.00,weatherlink.com 1.10,2013-06-10 13:51:00,
2013-06-10 10:06:00,59.6,59.0,29.86,North,11,0.0,8.0,99,0.00,,,0.00,weatherlink.com 1.10,2013-06-10 14:06:00,
2013-06-10 10:21:00,60.0,60.0,29.85,NNE,33,0.0,9.0,99,0.00,,,0.00,weatherlink.com 1.10,2013-06-10 14:21:00,
2013-06-10 10:36:00,60.5,60.0,29.86,ENE,60,2.0,5.0,99,0.00,,,0.00,weatherlink.com 1.10,2013-06-10 14:36:00,
2013-06-10 10:51:00,61.8,62.0,29.85,NNW,337,2.0,8.0,99,0.00,,,0.00,weatherlink.com 1.10,2013-06-10 14:51:00,
2013-06-10 11:06:00,61.1,61.0,29.86,NE,40,3.0,5.0,99,0.00,,,0.00,weatherlink.com 1.10,2013-06-10 15:06:00,
2013-06-10 11:21:00,60.7,61.0,29.86,ENE,72,0.0,10.0,99,0.00,,,0.00,weatherlink.com 1.10,2013-06-10 15:21:00,
2013-06-10 11:36:00,60.8,61.0,29.85,ENE,70,2.0,4.0,99,0.00,,,0.00,weatherlink.com 1.10,2013-06-10 15:36:00,
2013-06-10 11:51:00,61.8,62.0,29.85,NE,53,0.0,4.0,99,0.00,,,0.00,weatherlink.com 1.10,2013-06-10 15:51:00,
2013-06-10 12:06:00,62.0,62.0,29.85,ENE,67,3.0,6.0,98,0.00,,,0.00,weatherlink.com 1.10,2013-06-10 16:06:00,
2013-06-10 12:21:00,61.3,61.0,29.85,East,82,1.0,6.0,97,0.00,,,0.00,weatherlink.com 1.10,2013-06-10 16:21:00,
2013-06-10 12:36:00,61.0,60.0,29.85,East,90,5.0,5.0,97,0.00,,,0.00,weatherlink.com 1.10,2013-06-10 16:36:00,
2013-06-10 12:51:00,61.0,60.0,29.84,ENE,78,1.0,9.0,97,0.00,,,0.00,weatherlink.com 1.10,2013-06-10 16:51:00,
2013-06-10 13:06:00,61.5,60.0,29.84,SSE,153,1.0,4.0,96,0.00,,,0.00,weatherlink.com 1.10,2013-06-10 17:06:00,
2013-06-10 13:21:00,62.5,61.0,29.84,NE,36,0.0,5.0,95,0.00,,,0.00,weatherlink.com 1.10,2013-06-10 17:21:00,
2013-06-10 13:36:00,60.8,59.0,29.84,NE,43,1.0,9.0,92,0.00,,,0.00,weatherlink.com 1.10,2013-06-10 17:36:00,
2013-06-10 13:51:00,60.0,59.0,29.84,North,5,2.0,4.0,97,0.00,,,0.00,weatherlink.com 1.10,2013-06-10 17:51:00,
2013-06-10 14:06:00,60.2,59.0,29.84,NE,56,3.0,3.0,97,0.00,,,0.00,weatherlink.com 1.10,2013-06-10 18:06:00,
2013-06-10 14:21:00,60.0,59.0,29.83,NE,44,0.0,4.0,96,0.00,,,0.00,weatherlink.com 1.10,2013-06-10 18:21:00,
2013-06-10 14:36:00,59.8,58.0,29.83,NNE,19,1.0,4.0,95,0.00,,,0.00,weatherlink.com 1.10,2013-06-10 18:36:00,
2013-06-10 14:51:00,59.9,59.0,29.82,NNW,348,0.0,3.0,95,0.00,,,0.00,weatherlink.com 1.10,2013-06-10 18:51:00,
2013-06-10 15:06:00,60.4,59.0,29.81,NE,40,1.0,4.0,95,0.00,,,0.00,weatherlink.com 1.10,2013-06-10 19:06:00,
2013-06-10 15:21:00,62.3,60.0,29.81,East,90,0.0,5.0,91,0.00,,,0.00,weatherlink.com 1.10,2013-06-10 19:21:00,
2013-06-10 15:36:00,62.8,58.0,29.82,North,5,1.0,5.0,83,0.00,,,0.00,weatherlink.com 1.10,2013-06-10 19:36:00,
2013-06-10 15:51:00,63.4,58.0,29.81,NW,309,1.0,12.0,81,0.00,,,0.00,weatherlink.com 1.10,2013-06-10 19:51:00,
2013-06-10 16:06:00,64.5,57.0,29.81,NW,307,1.0,13.0,76,0.00,,,0.00,weatherlink.com 1.10,2013-06-10 20:06:00,
2013-06-10 16:36:00,63.1,57.0,29.81,WNW,292,0.0,5.0,81,0.00,,,0.00,weatherlink.com 1.10,2013-06-10 20:36:00,
2013-06-10 16:51:00,62.9,56.0,29.82,NW,325,1.0,5.0,77,0.00,,,0.00,weatherlink.com 1.10,2013-06-10 20:51:00,
2013-06-10 17:06:00,63.0,52.0,29.81,ENE,59,1.0,14.0,68,0.00,,,0.00,weatherlink.com 1.10,2013-06-10 21:06:00,
2013-06-10 17:21:00,63.9,52.0,29.81,North,355,1.0,5.0,65,0.00,,,0.00,weatherlink.com 1.10,2013-06-10 21:21:00,
2013-06-10 17:36:00,64.2,53.0,29.82,NNW,328,1.0,5.0,66,0.00,,,0.00,weatherlink.com 1.10,2013-06-10 21:36:00,
2013-06-10 17:51:00,63.2,52.0,29.82,NNW,340,0.0,7.0,68,0.00,,,0.00,weatherlink.com 1.10,2013-06-10 21:51:00,
2013-06-10 18:06:00,63.3,53.0,29.82,NW,326,0.0,5.0,69,0.00,,,0.00,weatherlink.com 1.10,2013-06-10 22:06:00,
2013-06-10 18:21:00,62.8,54.0,29.83,NW,315,0.0,4.0,72,0.00,,,0.00,weatherlink.com 1.10,2013-06-10 22:21:00,
2013-06-10 19:21:00,61.5,54.0,29.82,North,9,0.0,5.0,76,0.00,,,0.00,weatherlink.com 1.10,2013-06-10 23:21:00,
2013-06-10 19:36:00,60.0,54.0,29.82,NNE,15,1.0,4.0,80,0.00,,,0.00,weatherlink.com 1.10,2013-06-10 23:36:00,
2013-06-10 19:51:00,59.4,54.0,29.82,North,349,0.0,2.0,82,0.00,,,0.00,weatherlink.com 1.10,2013-06-10 23:51:00,
2013-06-10 20:06:00,58.9,54.0,29.82,NNW,348,0.0,4.0,83,0.00,,,0.00,weatherlink.com 1.10,2013-06-11 00:06:00,
2013-06-10 20:21:00,58.4,54.0,29.82,NNW,346,0.0,2.0,84,0.00,,,0.00,weatherlink.com 1.10,2013-06-11 00:21:00,
2013-06-10 20:36:00,57.8,53.0,29.83,North,355,0.0,4.0,85,0.00,,,0.00,weatherlink.com 1.10,2013-06-11 00:36:00,
2013-06-10 20:51:00,57.3,53.0,29.83,North,355,0.0,0.0,86,0.00,,,0.00,weatherlink.com 1.10,2013-06-11 00:51:00,
2013-06-10 21:06:00,57.2,52.0,29.84,NW,325,0.0,3.0,84,0.00,,,0.00,weatherlink.com 1.10,2013-06-11 01:06:00,
2013-06-10 21:21:00,57.2,52.0,29.84,NE,43,0.0,5.0,83,0.00,,,0.00,weatherlink.com 1.10,2013-06-11 01:21:00,
2013-06-10 21:36:00,57.2,52.0,29.85,NNW,329,2.0,5.0,83,0.00,,,0.00,weatherlink.com 1.10,2013-06-11 01:36:00,
2013-06-10 21:51:00,57.8,52.0,29.84,NW,325,3.0,5.0,81,0.00,,,0.00,weatherlink.com 1.10,2013-06-11 01:51:00,
2013-06-10 22:06:00,57.7,52.0,29.86,NNW,348,3.0,5.0,81,0.00,,,0.00,weatherlink.com 1.10,2013-06-11 02:06:00,
2013-06-10 22:21:00,57.6,52.0,29.86,NNE,22,0.0,4.0,82,0.00,,,0.00,weatherlink.com 1.10,2013-06-11 02:21:00,
2013-06-10 22:36:00,57.7,52.0,29.86,NNE,29,3.0,5.0,82,0.00,,,0.00,weatherlink.com 1.10,2013-06-11 02:36:00,
2013-06-10 22:51:00,57.1,52.0,29.86,NNE,30,0.0,3.0,84,0.00,,,0.00,weatherlink.com 1.10,2013-06-11 02:51:00,
2013-06-10 23:06:00,56.2,52.0,29.86,ENE,63,0.0,2.0,87,0.00,,,0.00,weatherlink.com 1.10,2013-06-11 03:06:00,
2013-06-10 23:22:00,55.4,52.0,29.86,ENE,61,1.0,1.0,89,0.00,,,0.00,weatherlink.com 1.10,2013-06-11 03:22:00,
2013-06-10 23:37:00,54.9,52.0,29.86,ENE,65,0.0,2.0,91,0.00,,,0.00,weatherlink.com 1.10,2013-06-11 03:37:00,
2013-06-10 23:52:00,55.0,53.0,29.85,ENE,77,2.0,2.0,92,0.00,,,0.00,weatherlink.com 1.10,2013-06-11 03:52:00,